timestamp,surface_pressure_avg,surface_temp_avg,battery_voltage,lat,long
2020-05-27 00:09:01+00:00,298.6063,5.8,12.89,47.84626,-54.09684
2020-05-27 00:19:01+00:00,307.0747,5.8,12.65,47.84626,-54.09684
2020-05-27 00:29:01+00:00,313.9147,5.8,12.65,47.84626,-54.09684
2020-05-27 00:39:01+00:00,319.6846,5.8,12.65,47.84626,-54.09684
2020-05-27 00:49:01+00:00,324.1447,5.8,12.65,47.84626,-54.09684
2020-05-27 00:59:01+00:00,328.5596,5.8,12.65,47.84626,-54.09684
2020-05-27 01:09:01+00:00,333.3813,5.8,12.65,47.84626,-54.09684
2020-05-27 01:19:01+00:00,337.783,5.8,12.65,47.84626,-54.09684
2020-05-27 01:29:01+00:00,340.4597,5.8,12.65,47.84626,-54.09684
2020-05-27 01:39:01+00:00,342.8246,5.8,12.65,47.84626,-54.09684
2020-05-27 01:49:01+00:00,346.028,5.8,12.65,47.84626,-54.09684
2020-05-27 01:59:01+00:00,348.9446,5.8,12.65,47.84626,-54.09684
2020-05-27 02:09:01+00:00,352.7596,5.8,12.65,47.84626,-54.09684
2020-05-27 02:19:01+00:00,354.2846,5.8,12.65,47.84626,-54.09684
2020-05-27 02:29:01+00:00,352.8196,5.8,12.65,47.84626,-54.09684
2020-05-27 02:39:01+00:00,353.1479,5.8,12.65,47.84626,-54.09684
2020-05-27 02:49:01+00:00,354.1914,5.8,12.65,47.84626,-54.09684
2020-05-27 02:59:01+00:00,352.0729,5.79,12.65,47.84626,-54.09684
2020-05-27 03:09:01+00:00,348.4463,5.79,12.65,47.84626,-54.09684
2020-05-27 03:19:01+00:00,345.7762,5.79,12.65,47.84626,-54.09684
2020-05-27 03:29:01+00:00,342.9229,5.79,12.65,47.84626,-54.09684
2020-05-27 03:39:01+00:00,343.2297,5.79,12.65,47.84626,-54.09684
2020-05-27 03:49:01+00:00,340.7030000000001,5.79,12.65,47.84626,-54.09684
2020-05-27 03:59:01+00:00,337.5896,5.79,12.65,47.84626,-54.09684
2020-05-27 04:09:01+00:00,334.353,5.79,12.65,47.84626,-54.09684
2020-05-27 04:19:01+00:00,331.3546,5.78,12.65,47.84626,-54.09684
2020-05-27 04:29:01+00:00,326.333,5.78,12.65,47.84626,-54.09684
2020-05-27 04:39:01+00:00,322.8946,5.78,12.65,47.84626,-54.09684
2020-05-27 04:49:01+00:00,319.3897,5.78,12.65,47.84626,-54.09684
2020-05-27 04:59:01+00:00,309.2047,5.78,12.65,47.84626,-54.09684
2020-05-27 05:09:01+00:00,302.2397,5.79,12.65,47.84626,-54.09684
2020-05-27 05:19:01+00:00,298.7131,5.79,12.57,47.84626,-54.09684
2020-05-27 05:29:01+00:00,291.7564,5.79,12.57,47.84626,-54.09684
2020-05-27 05:39:01+00:00,279.3947,5.79,12.57,47.84626,-54.09684
2020-05-27 05:49:01+00:00,271.2714,5.8,12.57,47.84626,-54.09684
2020-05-27 05:59:01+00:00,266.0397,5.8,12.57,47.84626,-54.09684
2020-05-27 06:09:01+00:00,258.7281,5.8,12.57,47.84626,-54.09684
2020-05-27 06:19:01+00:00,246.3481,5.8,12.57,47.84626,-54.09684
2020-05-27 06:29:01+00:00,237.6914,5.8,12.57,47.84626,-54.09684
2020-05-27 06:39:01+00:00,233.8898,5.8,12.57,47.84626,-54.09684
2020-05-27 06:49:01+00:00,226.2364,5.8,12.57,47.84626,-54.09684
2020-05-27 06:59:01+00:00,215.5114,5.8,12.57,47.84626,-54.09684
2020-05-27 07:09:01+00:00,208.6115,5.8,12.57,47.84626,-54.09684
2020-05-27 07:19:01+00:00,205.2631,5.8,12.57,47.84626,-54.09684
2020-05-27 07:29:01+00:00,201.5114,5.8,12.57,47.84626,-54.09684
2020-05-27 07:39:01+00:00,197.8998,5.8,12.57,47.84626,-54.09684
2020-05-27 07:49:01+00:00,194.7249,5.8,12.57,47.84626,-54.09684
2020-05-27 07:59:01+00:00,192.5448,5.8,12.57,47.84626,-54.09684
2020-05-27 08:09:01+00:00,193.7998,5.8,12.57,47.84626,-54.09684
2020-05-27 08:19:01+00:00,191.9998,5.8,12.57,47.84626,-54.09684
2020-05-27 08:29:01+00:00,192.1631,5.8,12.57,47.84626,-54.09684
2020-05-27 08:39:01+00:00,197.5631,5.8,12.57,47.84626,-54.09684
2020-05-27 08:49:01+00:00,200.3464,5.8,12.57,47.84626,-54.09684
2020-05-27 08:59:01+00:00,197.2865,5.8,12.57,47.84626,-54.09684
2020-05-27 09:09:01+00:00,199.5881,5.8,12.57,47.84626,-54.09684
2020-05-27 09:19:01+00:00,205.5031,5.8,12.57,47.84626,-54.09684
2020-05-27 09:29:01+00:00,208.5581,5.8,12.57,47.84626,-54.09684
2020-05-27 09:39:01+00:00,208.1515,5.8,12.57,47.84626,-54.09684
2020-05-27 09:49:01+00:00,210.3414,5.8,12.57,47.84626,-54.09684
2020-05-27 09:59:01+00:00,216.7648,5.8,12.57,47.84626,-54.09684
2020-05-27 10:09:01+00:00,218.4531,5.8,12.57,47.84626,-54.09684
2020-05-27 10:19:01+00:00,217.3164,5.8,12.65,47.84626,-54.09684
2020-05-27 10:29:01+00:00,219.6531,5.8,12.65,47.84626,-54.09684
2020-05-27 10:39:01+00:00,224.1498,5.8,12.65,47.84626,-54.09684
2020-05-27 10:49:01+00:00,223.9814,5.8,12.65,47.84626,-54.09684
2020-05-27 10:59:01+00:00,224.8315,5.8,12.65,47.84626,-54.09684
2020-05-27 11:09:01+00:00,229.9247,5.81,12.65,47.84626,-54.09684
2020-05-27 11:19:01+00:00,237.6314,5.85,13.13,47.84626,-54.09684
2020-05-27 11:29:01+00:00,242.5748,5.88,13.13,47.84626,-54.09684
2020-05-27 11:39:01+00:00,243.7264,5.89,13.13,47.84626,-54.09684
2020-05-27 11:49:01+00:00,247.1781,5.89,13.13,47.84626,-54.09684
2020-05-27 11:59:01+00:00,255.2564,5.9,13.13,47.84626,-54.09684
2020-05-27 12:09:01+00:00,261.3214,5.9,13.13,47.84626,-54.09684
2020-05-27 12:19:01+00:00,260.9131,5.9,13.13,47.84626,-54.09684
2020-05-27 12:29:01+00:00,266.5214,5.9,13.13,47.84626,-54.09684
2020-05-27 12:39:01+00:00,275.5114,5.9,13.13,47.84626,-54.09684
2020-05-27 12:49:01+00:00,280.9963,5.9,13.13,47.84626,-54.09684
2020-05-27 12:59:01+00:00,283.6013,5.92,13.13,47.84626,-54.09684
2020-05-27 13:09:01+00:00,291.1514,5.95,13.13,47.84626,-54.09684
2020-05-27 13:19:01+00:00,301.3447,5.97,13.21,47.84626,-54.09684
2020-05-27 13:29:01+00:00,302.4097,5.98,13.21,47.84626,-54.09684
2020-05-27 13:39:01+00:00,305.3698,5.99,13.21,47.84626,-54.09684
2020-05-27 13:49:01+00:00,309.3163,6.0,13.21,47.84626,-54.09684
2020-05-27 13:59:01+00:00,312.3397,6.06,13.21,47.84626,-54.09684
2020-05-27 14:09:01+00:00,308.7347,6.18,13.21,47.84626,-54.09684
2020-05-27 14:19:01+00:00,311.5297,6.2,13.53,47.84626,-54.09684
2020-05-27 14:29:01+00:00,318.7563,6.14,13.53,47.84626,-54.09684
2020-05-27 14:39:01+00:00,318.2696,6.1,13.53,47.84626,-54.09684
2020-05-27 14:49:01+00:00,315.6429,6.19,13.53,47.84626,-54.09684
2020-05-27 14:59:01+00:00,319.2279,6.19,13.53,47.84626,-54.09684
2020-05-27 15:09:01+00:00,320.2979,6.2,13.53,47.84626,-54.09684
2020-05-27 15:19:01+00:00,316.393,6.44,13.84,47.84626,-54.09684
2020-05-27 15:29:01+00:00,314.8047,6.68,13.84,47.84626,-54.09684
2020-05-27 15:39:01+00:00,315.4796,6.8,13.84,47.84626,-54.09684
2020-05-27 15:49:01+00:00,312.103,6.94,13.84,47.84626,-54.09684
2020-05-27 15:59:01+00:00,306.9481,7.06,13.84,47.84626,-54.09684
2020-05-27 16:09:01+00:00,307.6313,7.14,13.84,47.84626,-54.09684
2020-05-27 16:19:01+00:00,305.8547,7.2,14.0,47.84626,-54.09684
2020-05-27 16:29:01+00:00,301.3314,7.28,14.0,47.84626,-54.09684
2020-05-27 16:39:01+00:00,297.2914,7.22,14.0,47.84626,-54.09684
2020-05-27 16:49:01+00:00,296.0797,7.28,14.0,47.84626,-54.09684
2020-05-27 16:59:01+00:00,291.2581,7.32,14.0,47.84626,-54.09684
2020-05-27 17:09:01+00:00,287.1346,7.38,14.0,47.84626,-54.09684
2020-05-27 17:19:01+00:00,283.2014,7.4,14.16,47.84626,-54.09684
2020-05-27 17:29:01+00:00,276.6213,7.4,14.16,47.84626,-54.09684
2020-05-27 17:39:01+00:00,269.2547,7.5,14.16,47.84626,-54.09684
2020-05-27 17:49:01+00:00,266.58299999999997,7.5,14.16,47.84626,-54.09684
2020-05-27 17:59:01+00:00,262.0264,7.5,14.16,47.84626,-54.09684
2020-05-27 18:09:01+00:00,250.2114,7.5,14.16,47.84626,-54.09684
2020-05-27 18:19:01+00:00,240.9181,7.5,14.24,47.84626,-54.09684
2020-05-27 18:29:01+00:00,233.7314,7.51,14.24,47.84626,-54.09684
2020-05-27 18:39:01+00:00,227.3164,7.5,14.24,47.84626,-54.09684
2020-05-27 18:49:01+00:00,221.7331,7.5,14.24,47.84626,-54.09684
2020-05-27 18:59:01+00:00,216.1798,7.54,14.24,47.84626,-54.09684
2020-05-27 19:09:01+00:00,208.8881,7.55,14.24,47.84626,-54.09684
2020-05-27 19:19:01+00:00,202.4781,7.58,14.08,47.84626,-54.09684
2020-05-27 19:29:01+00:00,199.3098,7.6,14.08,47.84626,-54.09684
2020-05-27 19:39:01+00:00,198.1598,7.6,14.08,47.84626,-54.09684
2020-05-27 19:49:01+00:00,194.0098,7.6,14.08,47.84626,-54.09684
2020-05-27 19:59:01+00:00,191.1598,7.6,14.08,47.84626,-54.09684
2020-05-27 20:09:01+00:00,190.9848,7.63,14.08,47.84626,-54.09684
2020-05-27 20:19:01+00:00,190.5615,7.6,14.0,47.84626,-54.09684
2020-05-27 20:29:01+00:00,188.9131,7.57,14.0,47.84626,-54.09684
2020-05-27 20:39:01+00:00,188.6548,7.5,14.0,47.84626,-54.09684
2020-05-27 20:49:01+00:00,190.1515,7.49,14.0,47.84626,-54.09684
2020-05-27 20:59:01+00:00,193.3665,7.46,14.0,47.84626,-54.09684
2020-05-27 21:09:01+00:00,197.9048,7.44,14.0,47.84626,-54.09684
2020-05-27 21:19:01+00:00,202.0248,7.4,13.84,47.84626,-54.09684
2020-05-27 21:29:01+00:00,204.4864,7.3,13.84,47.84626,-54.09684
2020-05-27 21:39:01+00:00,208.2915,7.29,13.84,47.84626,-54.09684
2020-05-27 21:49:01+00:00,212.7331,7.29,13.84,47.84626,-54.09684
2020-05-27 21:59:01+00:00,215.5081,7.2,13.84,47.84626,-54.09684
2020-05-27 22:09:01+00:00,217.9964,7.1,13.84,47.84626,-54.09684
2020-05-27 22:19:01+00:00,224.1732,6.95,13.68,47.84626,-54.09684
2020-05-27 22:29:01+00:00,228.1214,6.5,13.68,47.84626,-54.09684
2020-05-27 22:39:01+00:00,228.4698,6.48,13.68,47.84626,-54.09684
2020-05-27 22:49:01+00:00,230.7898,6.4,13.68,47.84626,-54.09684
2020-05-27 22:59:01+00:00,238.0548,6.4,13.68,47.84626,-54.09684
2020-05-27 23:09:01+00:00,242.2414,6.4,13.68,47.84626,-54.09684
2020-05-27 23:19:01+00:00,241.3365,6.39,13.37,47.84626,-54.09684
2020-05-27 23:29:01+00:00,242.3164,6.32,13.37,47.84626,-54.09684
2020-05-27 23:39:01+00:00,246.5397,6.3,13.37,47.84626,-54.09684
2020-05-27 23:49:01+00:00,250.4165,6.3,13.37,47.84626,-54.09684
2020-05-27 23:59:01+00:00,253.1764,6.3,13.37,47.84626,-54.09684
